| time (UTC) | temp F | wind direction | speed knots | gust knots | rain 1hr in | rain 24hr in | rain mn in | humidity % | barometer mb |
| 20260504041759 | 46 | 260 | 0.0 | 0.0 | 0.00 | 0.00 | 0.00 | 68 | 1014.1 |
| 20260504041255 | 47 | 262 | 0.0 | 0.0 | 0.00 | 0.00 | 0.00 | 67 | 1014.3 |
| 20260504040751 | 47 | 257 | 0.9 | 0.9 | 0.00 | 0.00 | 0.00 | 65 | 1014.1 |
| 20260504040249 | 46 | 257 | 0.0 | 0.0 | 0.00 | 0.00 | 0.00 | 66 | 1014.2 |
| 20260504035744 | 46 | 253 | 0.9 | 0.9 | 0.00 | 0.00 | 0.00 | 66 | 1014.3 |
| 20260504035242 | 47 | 260 | 0.0 | 0.0 | 0.00 | 0.00 | 0.00 | 67 | 1014.1 |
| 20260504034740 | 46 | 252 | 0.9 | 1.7 | 0.00 | 0.00 | 0.00 | 66 | 1014.4 |
| 20260504034237 | 46 | 265 | 0.0 | 0.0 | 0.00 | 0.00 | 0.00 | 65 | 1014.3 |
| 20260504033734 | 46 | 266 | 0.0 | 0.0 | 0.00 | 0.00 | 0.00 | 65 | 1014.1 |
| 20260504033231 | 46 | 268 | 0.0 | 0.0 | 0.00 | 0.00 | 0.00 | 64 | 1014.1 |
| 20260504032728 | 46 | 264 | 0.0 | 0.0 | 0.00 | 0.00 | 0.00 | 64 | 1014.1 |
| 20260504032226 | 46 | 264 | 0.0 | 0.0 | 0.00 | 0.00 | 0.00 | 64 | 1014.1 |
| 20260504031722 | 46 | 264 | 0.0 | 0.0 | 0.00 | 0.00 | 0.00 | 64 | 1014.0 |
| 20260504031220 | 46 | 268 | 0.0 | 0.0 | 0.00 | 0.00 | 0.00 | 64 | 1014.1 |
| 20260504030715 | 46 | 266 | 0.0 | 0.0 | 0.00 | 0.00 | 0.00 | 63 | 1014.2 |
| 20260504030213 | 47 | 269 | 0.0 | 0.0 | 0.00 | 0.00 | 0.00 | 64 | 1014.2 |
| 20260504025709 | 47 | 267 | 0.0 | 0.0 | 0.00 | 0.00 | 0.00 | 64 | 1014.3 |
| 20260504025206 | 47 | 265 | 0.0 | 0.0 | 0.00 | 0.00 | 0.00 | 63 | 1014.4 |
| 20260504024703 | 47 | 275 | 0.9 | 0.9 | 0.00 | 0.00 | 0.00 | 63 | 1014.2 |
| 20260504024159 | 47 | 263 | 0.0 | 0.9 | 0.00 | 0.00 | 0.00 | 62 | 1014.3 |
| 20260504023656 | 47 | 278 | 0.9 | 0.9 | 0.00 | 0.00 | 0.00 | 63 | 1014.5 |
| 20260504023152 | 47 | 271 | 0.0 | 0.0 | 0.00 | 0.00 | 0.00 | 63 | 1014.3 |
| 20260504022649 | 47 | 269 | 0.0 | 0.0 | 0.00 | 0.00 | 0.00 | 63 | 1014.5 |
| 20260504022144 | 47 | 268 | 0.9 | 0.9 | 0.00 | 0.00 | 0.00 | 63 | 1014.7 |
| 20260504021643 | 47 | 265 | 0.0 | 0.0 | 0.00 | 0.00 | 0.00 | 64 | 1014.6 |
| 20260504021139 | 48 | 266 | 0.9 | 0.9 | 0.00 | 0.00 | 0.00 | 63 | 1014.7 |
| 20260504020636 | 48 | 270 | 0.9 | 0.9 | 0.00 | 0.00 | 0.00 | 63 | 1014.4 |
| 20260504020132 | 48 | 266 | 0.0 | 0.0 | 0.00 | 0.00 | 0.00 | 62 | 1014.5 |
| 20260504015629 | 47 | 273 | 0.9 | 0.9 | 0.00 | 0.00 | 0.00 | 63 | 1014.7 |
| 20260504015125 | 47 | 265 | 0.0 | 0.0 | 0.00 | 0.00 | 0.00 | 64 | 1014.3 |
| 20260504014621 | 47 | 276 | 0.9 | 0.9 | 0.00 | 0.00 | 0.00 | 64 | 1014.5 |
| 20260504014118 | 48 | 261 | 0.0 | 0.0 | 0.00 | 0.00 | 0.00 | 66 | 1014.5 |
| 20260504013616 | 48 | 267 | 0.0 | 0.0 | 0.00 | 0.00 | 0.00 | 63 | 1014.4 |
| 20260504013113 | 48 | 274 | 0.9 | 0.9 | 0.00 | 0.00 | 0.00 | 63 | 1014.4 |
| 20260504012610 | 48 | 268 | 0.0 | 0.9 | 0.00 | 0.00 | 0.00 | 62 | 1014.6 |
| 20260504012108 | 49 | 268 | 0.0 | 0.9 | 0.00 | 0.00 | 0.00 | 61 | 1014.2 |
| 20260504011604 | 49 | 268 | 0.0 | 0.9 | 0.00 | 0.00 | 0.00 | 59 | 1014.3 |
| 20260504011101 | 49 | 270 | 0.0 | 0.9 | 0.00 | 0.00 | 0.00 | 60 | 1014.4 |
| 20260504010556 | 50 | 266 | 0.0 | 0.0 | 0.00 | 0.00 | 0.00 | 57 | 1014.3 |
| 20260504010053 | 50 | 264 | 0.0 | 0.0 | 0.00 | 0.00 | 0.00 | 56 | 1014.3 |
| 20260504005549 | 50 | 264 | 0.0 | 0.0 | 0.00 | 0.00 | 0.00 | 55 | 1014.2 |
| 20260504005047 | 51 | 264 | 0.0 | 0.0 | 0.00 | 0.00 | 0.00 | 54 | 1014.1 |
| 20260504004544 | 51 | 264 | 0.0 | 0.0 | 0.00 | 0.00 | 0.00 | 54 | 1014.3 |
| 20260504004041 | 51 | 265 | 0.0 | 0.0 | 0.00 | 0.00 | 0.00 | 52 | 1014.1 |
| 20260504003537 | 51 | 266 | 0.0 | 0.0 | 0.00 | 0.00 | 0.00 | 52 | 1014.3 |
| 20260504003034 | 52 | 265 | 0.0 | 0.0 | 0.00 | 0.00 | 0.00 | 51 | 1014.1 |
| 20260504002531 | 52 | 270 | 0.9 | 0.9 | 0.00 | 0.00 | 0.00 | 52 | 1014.3 |
| 20260504002029 | 53 | 263 | 0.0 | 0.0 | 0.00 | 0.00 | 0.00 | 51 | 1014.3 |
| 20260504001526 | 53 | 267 | 0.0 | 0.0 | 0.00 | 0.00 | 0.00 | 51 | 1013.8 |
| 20260504001022 | 53 | 260 | 0.0 | 0.0 | 0.00 | 0.00 | 0.00 | 51 | 1014.0 |
| 20260504000520 | 54 | 259 | 0.0 | 0.0 | 0.00 | 0.00 | 0.00 | 50 | 1014.0 |
| 20260504000017 | 54 | 259 | 0.0 | 0.0 | 0.00 | 0.00 | 0.00 | 48 | 1014.2 |
| 20260503235515 | 54 | 251 | 0.0 | 0.9 | 0.00 | 0.00 | 0.00 | 48 | 1014.1 |
| 20260503235012 | 55 | 248 | 0.9 | 1.7 | 0.00 | 0.00 | 0.00 | 47 | 1014.1 |
| 20260503234509 | 55 | 262 | 0.0 | 0.0 | 0.00 | 0.00 | 0.00 | 47 | 1014.1 |
| 20260503234008 | 55 | 253 | 0.9 | 0.9 | 0.00 | 0.00 | 0.00 | 46 | 1014.2 |
| 20260503233503 | 55 | 258 | 0.9 | 0.9 | 0.00 | 0.00 | 0.00 | 46 | 1014.2 |
| 20260503233000 | 56 | 224 | 1.7 | 1.7 | 0.00 | 0.00 | 0.00 | 45 | 1014.2 |
| 20260503232457 | 56 | 257 | 0.9 | 0.9 | 0.00 | 0.00 | 0.00 | 44 | 1014.1 |
| 20260503231955 | 56 | 253 | 0.9 | 1.7 | 0.00 | 0.00 | 0.00 | 43 | 1014.1 |
| 20260503231452 | 56 | 254 | 1.7 | 1.7 | 0.00 | 0.00 | 0.00 | 44 | 1014.3 |
| 20260503230948 | 56 | 244 | 1.7 | 1.7 | 0.00 | 0.00 | 0.00 | 46 | 1014.1 |
| 20260503230445 | 56 | 261 | 0.0 | 0.0 | 0.00 | 0.00 | 0.00 | 43 | 1014.1 |
| 20260503225943 | 57 | 243 | 0.9 | 0.9 | 0.00 | 0.00 | 0.00 | 42 | 1014.2 |
| 20260503225439 | 57 | 224 | 2.6 | 2.6 | 0.00 | 0.00 | 0.00 | 43 | 1014.2 |
| 20260503224935 | 57 | 219 | 3.5 | 4.3 | 0.00 | 0.00 | 0.00 | 42 | 1014.1 |
| 20260503224432 | 57 | 219 | 2.6 | 2.6 | 0.00 | 0.00 | 0.00 | 41 | 1013.9 |
| 20260503223930 | 57 | 204 | 1.7 | 2.6 | 0.00 | 0.00 | 0.00 | 43 | 1014.1 |
| 20260503223427 | 57 | 190 | 3.5 | 5.2 | 0.00 | 0.00 | 0.00 | 41 | 1014.2 |
| 20260503222922 | 57 | 244 | 0.9 | 0.9 | 0.00 | 0.00 | 0.00 | 41 | 1014.3 |
| 20260503222421 | 57 | 219 | 0.0 | 1.7 | 0.00 | 0.00 | 0.00 | 42 | 1014.2 |
| 20260503221919 | 57 | 207 | 2.6 | 4.3 | 0.00 | 0.00 | 0.00 | 41 | 1014.3 |
| 20260503221417 | 57 | 246 | 0.9 | 0.9 | 0.00 | 0.00 | 0.00 | 41 | 1014.2 |
| 20260503220914 | 57 | 249 | 1.7 | 1.7 | 0.00 | 0.00 | 0.00 | 41 | 1014.3 |
| 20260503220410 | 57 | 242 | 0.9 | 1.7 | 0.00 | 0.00 | 0.00 | 41 | 1014.3 |
| 20260503215907 | 57 | 213 | 2.6 | 2.6 | 0.00 | 0.00 | 0.00 | 42 | 1014.4 |
| 20260503215404 | 57 | 240 | 1.7 | 1.7 | 0.00 | 0.00 | 0.00 | 42 | 1014.3 |
| 20260503214902 | 58 | 242 | 0.9 | 1.7 | 0.00 | 0.00 | 0.00 | 41 | 1014.2 |
| 20260503214359 | 58 | 248 | 1.7 | 1.7 | 0.00 | 0.00 | 0.00 | 41 | 1014.3 |
| 20260503213856 | 58 | 233 | 0.9 | 1.7 | 0.00 | 0.00 | 0.00 | 41 | 1014.1 |
| 20260503213354 | 57 | 237 | 1.7 | 1.7 | 0.00 | 0.00 | 0.00 | 42 | 1014.4 |
| 20260503212850 | 58 | 223 | 2.6 | 2.6 | 0.00 | 0.00 | 0.00 | 42 | 1014.1 |
| 20260503212348 | 58 | 209 | 3.5 | 5.2 | 0.00 | 0.00 | 0.00 | 42 | 1014.1 |
| 20260503211845 | 58 | 208 | 3.5 | 4.3 | 0.00 | 0.00 | 0.00 | 41 | 1014.1 |
| 20260503211342 | 58 | 247 | 1.7 | 1.7 | 0.00 | 0.00 | 0.00 | 41 | 1014.3 |
| 20260503210837 | 59 | 215 | 5.2 | 7.0 | 0.00 | 0.00 | 0.00 | 42 | 1014.2 |
| 20260503210335 | 58 | 236 | 0.9 | 1.7 | 0.00 | 0.00 | 0.00 | 42 | 1014.1 |
| 20260503205829 | 59 | 249 | 0.9 | 0.9 | 0.00 | 0.00 | 0.00 | 41 | 1014.4 |
| 20260503205326 | 58 | 249 | 2.6 | 2.6 | 0.00 | 0.00 | 0.00 | 42 | 1014.3 |
| 20260503204823 | 58 | 249 | 1.7 | 1.7 | 0.00 | 0.00 | 0.00 | 40 | 1014.3 |
| 20260503204321 | 58 | 269 | 1.7 | 1.7 | 0.00 | 0.00 | 0.00 | 42 | 1014.5 |
| 20260503203818 | 58 | 229 | 2.6 | 2.6 | 0.00 | 0.00 | 0.00 | 41 | 1014.8 |
| 20260503203315 | 58 | 194 | 2.6 | 4.3 | 0.00 | 0.00 | 0.00 | 41 | 1014.3 |
| 20260503202812 | 59 | 228 | 3.5 | 4.3 | 0.00 | 0.00 | 0.00 | 39 | 1014.7 |
| 20260503202310 | 58 | 236 | 0.9 | 0.9 | 0.00 | 0.00 | 0.00 | 40 | 1014.8 |
| 20260503201808 | 59 | 237 | 5.2 | 7.0 | 0.00 | 0.00 | 0.00 | 40 | 1014.7 |
| 20260503201304 | 59 | 186 | 5.2 | 7.0 | 0.00 | 0.00 | 0.00 | 42 | 1014.8 |
| 20260503200802 | 59 | 241 | 1.7 | 1.7 | 0.00 | 0.00 | 0.00 | 40 | 1014.8 |
| 20260503200257 | 59 | 195 | 5.2 | 6.1 | 0.00 | 0.00 | 0.00 | 39 | 1014.8 |
| 20260503195755 | 59 | 249 | 1.7 | 1.7 | 0.00 | 0.00 | 0.00 | 39 | 1014.9 |
| 20260503195251 | 59 | 215 | 0.0 | 0.0 | 0.00 | 0.00 | 0.00 | 40 | 1015.1 |
| 20260503194749 | 58 | 247 | 0.9 | 0.9 | 0.00 | 0.00 | 0.00 | 40 | 1015.1 |
| 20260503194245 | 58 | 225 | 2.6 | 2.6 | 0.00 | 0.00 | 0.00 | 42 | 1015.3 |
| 20260503193741 | 60 | 235 | 2.6 | 2.6 | 0.00 | 0.00 | 0.00 | 40 | 1015.3 |
| 20260503193237 | 59 | 212 | 3.5 | 4.3 | 0.00 | 0.00 | 0.00 | 41 | 1015.4 |
| 20260503192733 | 59 | 248 | 0.9 | 0.9 | 0.00 | 0.00 | 0.00 | 41 | 1015.5 |
| 20260503192228 | 58 | 251 | 2.6 | 2.6 | 0.00 | 0.00 | 0.00 | 40 | 1015.5 |
| 20260503191725 | 57 | 205 | 4.3 | 4.3 | 0.00 | 0.00 | 0.00 | 41 | 1015.5 |
| 20260503191222 | 57 | 197 | 2.6 | 2.6 | 0.00 | 0.00 | 0.00 | 44 | 1015.6 |
| 20260503190719 | 58 | 189 | 7.0 | 9.6 | 0.00 | 0.00 | 0.00 | 42 | 1015.8 |
| 20260503190216 | 58 | 260 | 1.7 | 1.7 | 0.00 | 0.00 | 0.00 | 42 | 1015.8 |
| 20260503185713 | 58 | 192 | 7.0 | 8.7 | 0.00 | 0.00 | 0.00 | 41 | 1016.2 |
| 20260503185208 | 57 | 190 | 3.5 | 5.2 | 0.00 | 0.00 | 0.00 | 42 | 1016.2 |
| 20260503184703 | 56 | 277 | 0.9 | 0.9 | 0.00 | 0.00 | 0.00 | 44 | 1016.2 |
| 20260503184200 | 56 | 263 | 0.0 | 0.0 | 0.00 | 0.00 | 0.00 | 44 | 1016.1 |
| 20260503183656 | 57 | 224 | 0.9 | 1.7 | 0.00 | 0.00 | 0.00 | 42 | 1016.3 |
| 20260503183154 | 58 | 222 | 3.5 | 4.3 | 0.00 | 0.00 | 0.00 | 43 | 1016.5 |
| 20260503182652 | 56 | 210 | 3.5 | 5.2 | 0.00 | 0.00 | 0.00 | 45 | 1016.3 |
| 20260503182150 | 56 | 246 | 2.6 | 4.3 | 0.00 | 0.00 | 0.00 | 43 | 1016.5 |
| 20260503181646 | 56 | 232 | 1.7 | 1.7 | 0.00 | 0.00 | 0.00 | 44 | 1016.4 |
| 20260503181143 | 55 | 226 | 0.9 | 2.6 | 0.00 | 0.00 | 0.00 | 45 | 1016.5 |
| 20260503180640 | 56 | 190 | 6.1 | 7.0 | 0.00 | 0.00 | 0.00 | 42 | 1016.4 |
| 20260503180138 | 57 | 253 | 1.7 | 2.6 | 0.00 | 0.00 | 0.00 | 42 | 1016.5 |
| 20260503175635 | 57 | 196 | 2.6 | 4.3 | 0.00 | 0.00 | 0.00 | 41 | 1016.7 |
| 20260503175132 | 57 | 210 | 2.6 | 2.6 | 0.00 | 0.00 | 0.00 | 43 | 1016.7 |
| 20260503174628 | 55 | 195 | 3.5 | 4.3 | 0.00 | 0.00 | 0.00 | 42 | 1016.7 |
| 20260503174126 | 55 | 233 | 2.6 | 2.6 | 0.00 | 0.00 | 0.00 | 42 | 1016.9 |
| 20260503173621 | 55 | 261 | 0.0 | 0.9 | 0.00 | 0.00 | 0.00 | 43 | 1016.8 |
| 20260503173117 | 56 | 280 | 1.7 | 1.7 | 0.00 | 0.00 | 0.00 | 42 | 1016.8 |
| 20260503172614 | 56 | 206 | 1.7 | 4.3 | 0.00 | 0.00 | 0.00 | 42 | 1017.1 |
| 20260503172112 | 56 | 206 | 2.6 | 2.6 | 0.00 | 0.00 | 0.00 | 41 | 1017.0 |
| 20260503171609 | 56 | 242 | 4.3 | 6.1 | 0.00 | 0.00 | 0.00 | 40 | 1017.0 |
| 20260503171106 | 57 | 199 | 5.2 | 7.0 | 0.00 | 0.00 | 0.00 | 41 | 1016.8 |
| 20260503170602 | 57 | 260 | 1.7 | 2.6 | 0.00 | 0.00 | 0.00 | 42 | 1017.1 |
| 20260503150954 | 51 | 169 | 2.6 | 2.6 | 0.00 | 0.00 | 0.00 | 46 | 1018.1 |
| 20260503150451 | 51 | 251 | 0.9 | 1.7 | 0.00 | 0.00 | 0.00 | 48 | 1017.8 |
| 20260503131344 | 44 | 261 | 0.0 | 0.9 | 0.00 | 0.00 | 0.00 | 67 | 1018.3 |
| 20260503130841 | 44 | 257 | 1.7 | 1.7 | 0.00 | 0.00 | 0.00 | 68 | 1018.4 |
| 20260503130339 | 44 | 240 | 0.0 | 0.9 | 0.00 | 0.00 | 0.00 | 68 | 1018.5 |
| 20260503110732 | 32 | 262 | 0.0 | 0.0 | 0.00 | 0.00 | 0.00 | 94 | 1017.8 |
| 20260503110230 | 32 | 262 | 0.0 | 0.0 | 0.00 | 0.00 | 0.00 | 94 | 1017.8 |
| 20260503100156 | 32 | 265 | 0.0 | 0.0 | 0.00 | 0.00 | 0.00 | 93 | 1017.0 |
| 20260503090115 | 32 | 266 | 0.0 | 0.0 | 0.00 | 0.00 | 0.00 | 92 | 1016.8 |
| 20260503081550 | 34 | 263 | 0.0 | 0.0 | 0.00 | 0.00 | 0.00 | 90 | 1016.6 |
| 20260503081048 | 34 | 262 | 0.0 | 0.0 | 0.00 | 0.00 | 0.00 | 90 | 1016.9 |
| 20260503080544 | 34 | 262 | 0.0 | 0.0 | 0.00 | 0.00 | 0.00 | 90 | 1016.9 |
| 20260503072518 | 35 | 262 | 0.0 | 0.0 | 0.00 | 0.00 | 0.00 | 90 | 1016.4 |
| 20260503072015 | 35 | 261 | 0.0 | 0.0 | 0.00 | 0.00 | 0.00 | 90 | 1016.5 |
| 20260503071512 | 35 | 262 | 0.0 | 0.0 | 0.00 | 0.00 | 0.00 | 91 | 1016.5 |
| 20260503071008 | 35 | 264 | 0.0 | 0.0 | 0.00 | 0.00 | 0.00 | 91 | 1016.6 |
| 20260503070505 | 35 | 265 | 0.0 | 0.0 | 0.00 | 0.00 | 0.00 | 91 | 1016.6 |
| 20260503054929 | 34 | 265 | 0.0 | 0.0 | 0.00 | 0.00 | 0.00 | 90 | 1016.7 |
| 20260503054425 | 34 | 264 | 0.0 | 0.0 | 0.00 | 0.00 | 0.00 | 90 | 1016.4 |
| 20260503053923 | 34 | 264 | 0.0 | 0.0 | 0.00 | 0.00 | 0.00 | 90 | 1016.7 |
| 20260503053421 | 34 | 265 | 0.0 | 0.0 | 0.00 | 0.00 | 0.00 | 90 | 1016.5 |
| 20260503052916 | 34 | 264 | 0.0 | 0.0 | 0.00 | 0.00 | 0.00 | 90 | 1016.7 |
| 20260503052414 | 34 | 265 | 0.0 | 0.0 | 0.00 | 0.00 | 0.00 | 90 | 1016.8 |
| 20260503051910 | 34 | 266 | 0.0 | 0.0 | 0.00 | 0.00 | 0.00 | 90 | 1016.7 |
| 20260503051406 | 34 | 265 | 0.0 | 0.0 | 0.00 | 0.00 | 0.00 | 90 | 1016.7 |
| 20260503050904 | 34 | 265 | 0.0 | 0.0 | 0.00 | 0.00 | 0.00 | 90 | 1016.8 |
| 20260503050359 | 34 | 268 | 0.0 | 0.0 | 0.00 | 0.00 | 0.00 | 90 | 1016.8 |
| 20260503045857 | 34 | 265 | 0.0 | 0.0 | 0.00 | 0.00 | 0.00 | 90 | 1016.7 |
| 20260503045354 | 34 | 264 | 0.0 | 0.0 | 0.00 | 0.00 | 0.00 | 90 | 1016.8 |
| 20260503044851 | 34 | 265 | 0.0 | 0.0 | 0.00 | 0.00 | 0.00 | 89 | 1016.9 |
| 20260503044348 | 34 | 268 | 0.0 | 0.0 | 0.00 | 0.00 | 0.00 | 89 | 1016.7 |
| 20260503043845 | 34 | 265 | 0.0 | 0.0 | 0.00 | 0.00 | 0.00 | 89 | 1016.8 |
| 20260503043342 | 34 | 275 | 0.0 | 0.0 | 0.00 | 0.00 | 0.00 | 89 | 1016.9 |
| 20260503042838 | 34 | 264 | 0.0 | 0.0 | 0.00 | 0.00 | 0.00 | 89 | 1016.8 |
| 20260503042335 | 35 | 273 | 0.0 | 0.9 | 0.00 | 0.00 | 0.00 | 88 | 1016.9 |